When you browse on this site, cookies collect data to enhance your experience and personalize the content and advertising you see.
Visit our Privacy Policy to learn more. By continuing to use the site, you agree to this use of cookies and data.
  • En España
  • Lista de países
  • Para 7 días
  • Temperatura del agua
  • El tiempo en el mapa
  • Informadores
  • user-avatar
    Iniciar sesión

    Tiempo cada hora Taraz

    Hoy, 20 Septiembre, Viernes

    Tiempo Temperatura Precipitaciones Viento Presión Humedad
    00:00 +21°C° 0 mm 1 mps 708 mmHg 27%
    01:00 +20°C° 0 mm 1 mps 708 mmHg 30%
    02:00 +19°C° 0 mm 1 mps 708 mmHg 34%
    03:00 +19°C° 0 mm 1 mps 708 mmHg 36%
    04:00 +19°C° 0 mm 1 mps 708 mmHg 38%
    05:00 +18°C° 0 mm 1 mps 708 mmHg 40%
    06:00 +20°C° 0 mm 1 mps 708 mmHg 36%
    07:00 +21°C° 0 mm 1 mps 709 mmHg 33%
    08:00 +23°C° 0 mm 1 mps 709 mmHg 29%
    09:00 +25°C° 0 mm 2 mps 709 mmHg 26%
    10:00 +27°C° 0 mm 2 mps 709 mmHg 23%
    11:00 +29°C° 0 mm 3 mps 709 mmHg 20%
    12:00 +30°C° 0 mm 3 mps 709 mmHg 19%
    13:00 +32°C° 0 mm 4 mps 709 mmHg 17%
    14:00 +33°C° 0 mm 4 mps 708 mmHg 16%
    15:00 +33°C° 0 mm 4 mps 708 mmHg 16%
    16:00 +33°C° 0 mm 4 mps 708 mmHg 16%
    17:00 +32°C° 0 mm 4 mps 708 mmHg 17%
    18:00 +29°C° 0 mm 4 mps 708 mmHg 20%
    19:00 +26°C° 0 mm 3 mps 708 mmHg 24%
    20:00 +24°C° 0 mm 2 mps 708 mmHg 27%
    21:00 +23°C° 0 mm 2 mps 707 mmHg 29%
    22:00 +21°C° 0 mm 2 mps 707 mmHg 31%
    23:00 +21°C° 0 mm 1 mps 707 mmHg 32%

    Mañana, 21 Septiembre, Sábado

    Tiempo Temperatura Precipitaciones Viento Presión Humedad
    00:00 +20°C° 0 mm 1 mps 706 mmHg 34%
    01:00 +20°C° 0 mm 1 mps 706 mmHg 35%
    02:00 +19°C° 0 mm 1 mps 705 mmHg 37%
    03:00 +18°C° 0 mm 1 mps 705 mmHg 37%
    04:00 +18°C° 0 mm 1 mps 705 mmHg 38%
    05:00 +16°C° 0 mm 1 mps 705 mmHg 39%
    06:00 +19°C° 0 mm 1 mps 706 mmHg 35%
    07:00 +21°C° 0 mm 1 mps 706 mmHg 31%
    08:00 +23°C° 0 mm 1 mps 706 mmHg 27%
    09:00 +25°C° 0 mm 1 mps 706 mmHg 24%
    10:00 +28°C° 0 mm 2 mps 706 mmHg 21%
    11:00 +30°C° 0 mm 2 mps 706 mmHg 19%
    12:00 +31°C° 0 mm 3 mps 706 mmHg 17%
    13:00 +34°C° 0 mm 3 mps 705 mmHg 16%
    14:00 +35°C° 0 mm 3 mps 705 mmHg 14%
    15:00 +35°C° 0 mm 3 mps 705 mmHg 14%
    16:00 +35°C° 0 mm 3 mps 705 mmHg 14%
    17:00 +35°C° 0 mm 3 mps 705 mmHg 15%
    18:00 +31°C° 0 mm 3 mps 704 mmHg 18%
    19:00 +28°C° 0 mm 2 mps 704 mmHg 21%
    20:00 +25°C° 0 mm 2 mps 703 mmHg 25%
    21:00 +25°C° 0 mm 2 mps 703 mmHg 25%
    22:00 +25°C° 0 mm 2 mps 703 mmHg 26%
    23:00 +24°C° 0 mm 2 mps 703 mmHg 27%

    Pasado mañana, 22 Septiembre, Domingo

    Tiempo Temperatura Precipitaciones Viento Presión Humedad
    00:00 +24°C° 0 mm 2 mps 703 mmHg 27%
    01:00 +24°C° 0 mm 2 mps 703 mmHg 27%
    02:00 +23°C° 0 mm 2 mps 702 mmHg 28%
    03:00 +22°C° 0 mm 3 mps 702 mmHg 27%
    04:00 +22°C° 0 mm 3 mps 702 mmHg 26%
    05:00 +22°C° 0 mm 3 mps 703 mmHg 25%
    06:00 +25°C° 0 mm 3 mps 703 mmHg 21%
    07:00 +28°C° 0 mm 4 mps 703 mmHg 18%
    08:00 +30°C° 0 mm 4 mps 704 mmHg 14%
    09:00 +33°C° 0 mm 3 mps 704 mmHg 12%
    10:00 +35°C° 0 mm 3 mps 704 mmHg 11%
    11:00 +38°C° 0 mm 2 mps 704 mmHg 9%
    12:00 +39°C° 0 mm 3 mps 704 mmHg 8%
    13:00 +40°C° 0 mm 5 mps 704 mmHg 7%
    14:00 +41°C° 0 mm 6 mps 704 mmHg 6%
    15:00 +41°C° 0 mm 6 mps 704 mmHg 6%
    16:00 +40°C° 0 mm 7 mps 704 mmHg 7%
    17:00 +39°C° 0 mm 7 mps 704 mmHg 7%
    18:00 +35°C° 0 mm 6 mps 704 mmHg 9%
    19:00 +33°C° 0 mm 4 mps 704 mmHg 10%
    20:00 +29°C° 0 mm 3 mps 704 mmHg 12%
    21:00 +27°C° 0 mm 3 mps 705 mmHg 23%
    22:00 +23°C° 0 mm 4 mps 705 mmHg 33%
    23:00 +21°C° 0 mm 4 mps 705 mmHg 44%

    23 Septiembre, Lunes

    Tiempo Temperatura Precipitaciones Viento Presión Humedad
    00:00 +19°C° 0 mm 3 mps 706 mmHg 52%
    01:00 +18°C° 0 mm 3 mps 707 mmHg 59%
    02:00 +16°C° 0 mm 2 mps 708 mmHg 67%
    03:00 +16°C° 0 mm 2 mps 708 mmHg 68%
    04:00 +16°C° 0 mm 1 mps 709 mmHg 69%
    05:00 +15°C° 0 mm 1 mps 709 mmHg 69%
    06:00 +16°C° 0 mm 1 mps 710 mmHg 64%
    07:00 +16°C° 0 mm 2 mps 710 mmHg 59%
    08:00 +17°C° 0 mm 2 mps 711 mmHg 54%
    09:00 +18°C° 0 mm 2 mps 711 mmHg 50%
    10:00 +19°C° 0 mm 2 mps 711 mmHg 46%
    11:00 +21°C° 0 mm 2 mps 711 mmHg 42%
    12:00 +22°C° 0 mm 3 mps 711 mmHg 39%
    13:00 +24°C° 0 mm 3 mps 710 mmHg 36%
    14:00 +25°C° 0 mm 3 mps 710 mmHg 33%
    15:00 +25°C° 0 mm 3 mps 710 mmHg 33%
    16:00 +25°C° 0 mm 3 mps 710 mmHg 33%
    17:00 +25°C° 0 mm 3 mps 709 mmHg 32%
    18:00 +23°C° 0 mm 2 mps 709 mmHg 37%
    19:00 +21°C° 0 mm 2 mps 709 mmHg 42%
    20:00 +19°C° 0 mm 2 mps 709 mmHg 47%
    21:00 +19°C° 0 mm 1 mps 708 mmHg 48%
    22:00 +19°C° 0 mm 1 mps 708 mmHg 50%
    23:00 +18°C° 0 mm 1 mps 708 mmHg 52%

    24 Septiembre, Martes

    Tiempo Temperatura Precipitaciones Viento Presión Humedad
    00:00 +18°C° 0 mm 1 mps 708 mmHg 51%
    01:00 +16°C° 0 mm 1 mps 708 mmHg 50%
    02:00 +16°C° 0 mm 2 mps 708 mmHg 48%
    03:00 +15°C° 0 mm 1 mps 708 mmHg 46%
    04:00 +14°C° 0 mm 1 mps 708 mmHg 44%
    05:00 +13°C° 0 mm 1 mps 708 mmHg 42%
    06:00 +14°C° 0 mm 1 mps 708 mmHg 38%
    07:00 +16°C° 0 mm 2 mps 709 mmHg 33%
    08:00 +17°C° 0 mm 2 mps 709 mmHg 28%
    09:00 +18°C° 0 mm 2 mps 710 mmHg 26%
    10:00 +20°C° 0 mm 2 mps 710 mmHg 24%
    11:00 +23°C° 0 mm 2 mps 710 mmHg 22%
    12:00 +24°C° 0 mm 2 mps 710 mmHg 20%
    13:00 +25°C° 0 mm 2 mps 710 mmHg 19%
    14:00 +26°C° 0 mm 2 mps 710 mmHg 17%
    15:00 +25°C° 0 mm 3 mps 710 mmHg 17%
    16:00 +25°C° 0 mm 3 mps 710 mmHg 18%
    17:00 +25°C° 0 mm 3 mps 710 mmHg 18%
    18:00 +23°C° 0 mm 2 mps 710 mmHg 21%
    19:00 +19°C° 0 mm 2 mps 710 mmHg 24%
    20:00 +18°C° 0 mm 1 mps 710 mmHg 27%
    21:00 +16°C° 0 mm 1 mps 710 mmHg 28%
    22:00 +15°C° 0 mm 1 mps 709 mmHg 30%
    23:00 +14°C° 0 mm 1 mps 709 mmHg 31%

    25 Septiembre, Miércoles

    Tiempo Temperatura Precipitaciones Viento Presión Humedad
    00:00 +13°C° 0 mm 1 mps 709 mmHg 34%
    01:00 +13°C° 0 mm 1 mps 709 mmHg 36%
    02:00 +12°C° 0 mm 1 mps 709 mmHg 38%
    03:00 +12°C° 0 mm 1 mps 709 mmHg 40%
    04:00 +10°C° 0 mm 0 mps 709 mmHg 42%
    05:00 +10°C° 0 mm 0 mps 709 mmHg 44%
    06:00 +11°C° 0 mm 0 mps 710 mmHg 40%
    07:00 +13°C° 0 mm 0 mps 710 mmHg 37%
    08:00 +15°C° 0 mm 0 mps 711 mmHg 33%
    09:00 +19°C° 0 mm 1 mps 711 mmHg 29%
    10:00 +20°C° 0 mm 2 mps 711 mmHg 26%
    11:00 +22°C° 0 mm 3 mps 711 mmHg 23%
    12:00 +24°C° 0 mm 3 mps 710 mmHg 22%
    13:00 +26°C° 0 mm 3 mps 710 mmHg 20%
    14:00 +27°C° 0 mm 4 mps 710 mmHg 19%
    15:00 +27°C° 0 mm 4 mps 710 mmHg 20%
    16:00 +26°C° 0 mm 4 mps 709 mmHg 20%
    17:00 +26°C° 0 mm 4 mps 709 mmHg 21%
    18:00 +23°C° 0 mm 4 mps 709 mmHg 25%
    19:00 +21°C° 0 mm 3 mps 709 mmHg 30%
    20:00 +18°C° 0 mm 2 mps 709 mmHg 34%
    21:00 +17°C° 0 mm 2 mps 708 mmHg 36%
    22:00 +17°C° 0 mm 2 mps 708 mmHg 38%
    23:00 +16°C° 0 mm 2 mps 708 mmHg 39%
    Mostrar más